Flag for U.S.A. Weather past 2 weeks in Sevierville, Tennessee, U.S.A.

Now
63 °F

Mostly cloudy.


Feels Like: 63 °F
Forecast: 59 / 79 °F
Wind: 3 mph from Southeast

Location: McGhee Tyson Airport

Current Time: Apr 18, 2015 at 12:40:34 AM

Latest Report: Apr 17, 2015 at 11:53 PM


Visibility: 10 mi

Pressure: 30.00 "Hg

Humidity: 90%

Dew point: 60 °F

Location of SeviervilleLocation

Historic Weather in Sevierville — Graph

°F

Sevierville temperature yesterday

Maximum temperature yesterday: 70 °F (at 4:53 PM)
Minimum temperature yesterday: 59 °F (at 12:53 AM)
Average temperature yesterday: 63 °F

Past Weeks' High & Low Weather Summary

 TemperatureHumidityPressure
High84 °F (Apr 9, 2:53 PM)100% (Apr 7, 9:53 PM)30.32 "Hg (Apr 7, 9:53 PM)
Low32 °F (Apr 5, 6:53 AM)20% (Apr 4, 6:53 PM)29.77 "Hg (Apr 3, 7:53 PM)
Average63 °F70%30.09 "Hg
* Reported Apr 2 10:53 PM — Apr 17 10:53 PM, Sevierville, Weather by CustomWeather, © 2015

Note: Actual official high and low records may vary slightly from our data, if they occured in-between our weather recording intervals... More about our weather records

Advertising

Sevierville weather history for previous 24 hours

 ConditionsComfort  
Time TempWeatherWind HumidityBarometerVisibility
10:53 PM
Fri, Apr 17
64 °FMostly cloudy.No wind90%30.02 "Hg10 mi
9:53 PM64 °FMostly cloudy.6 mph87%30.02 "Hg10 mi
8:53 PM64 °FPartly sunny.7 mph87%29.99 "Hg10 mi
7:53 PM66 °FMostly cloudy.No wind81%29.98 "Hg10 mi
6:53 PM67 °FMostly cloudy.6 mph79%29.99 "Hg10 mi
5:53 PM69 °FMostly cloudy.3 mph70%30.00 "Hg10 mi
4:53 PM70 °FCloudy.3 mph68%30.01 "Hg10 mi
3:53 PM69 °FMostly cloudy.5 mph70%30.02 "Hg10 mi
2:53 PM69 °FMostly cloudy.No wind68%30.04 "Hg10 mi
1:53 PM68 °FMostly cloudy.5 mph73%30.07 "Hg10 mi
12:53 PM66 °FMostly cloudy.3 mph75%30.09 "Hg10 mi
11:53 AM65 °FMostly cloudy.No wind78%30.11 "Hg10 mi
10:53 AM62 °FLow clouds.No wind86%30.13 "Hg10 mi
9:53 AM61 °FFog.No wind90%30.14 "Hg5 mi
8:53 AM59 °FDrizzle. Fog.No wind96%30.14 "Hg1 mi
7:53 AM59 °FDrizzle. Fog.No wind96%30.14 "Hg2 mi
6:53 AM59 °FLow clouds.No wind93%30.13 "Hg7 mi
5:53 AM59 °FMostly cloudy.No wind93%30.12 "Hg9 mi
4:53 AM59 °FOvercast.3 mph93%30.12 "Hg10 mi
3:53 AM59 °FMostly cloudy.5 mph93%30.11 "Hg10 mi
2:53 AM59 °FLow clouds.3 mph93%30.12 "Hg10 mi
1:53 AM60 °FOvercast.No wind90%30.13 "Hg10 mi
12:53 AM59 °FOvercast.5 mph93%30.13 "Hg10 mi
Weather by CustomWeather, © 2015

See weather overviewHow to use our weather pages